| time (UTC) | temp F | wind direction | speed knots | gust knots | rain 1hr in | rain 24hr in | rain mn in | humidity % | barometer mb |
| 20260906123002 | 75 | 84 | 2.6 | 7.0 | 0.01 | 0.04 | 0.04 | 91 | 1013.7 |
| 20260906122503 | 74 | 70 | 2.6 | 6.1 | 0.01 | 0.04 | 0.04 | 91 | 1013.6 |
| 20260906122001 | 74 | 112 | 2.6 | 7.0 | 0.01 | 0.04 | 0.04 | 91 | 1013.5 |
| 20260906121502 | 74 | 5 | 2.6 | 7.0 | 0.01 | 0.04 | 0.04 | 91 | 1013.5 |
| 20260906121001 | 74 | 73 | 1.7 | 5.2 | 0.01 | 0.04 | 0.04 | 91 | 1013.4 |
| 20260906120004 | 75 | 38 | 1.7 | 3.5 | 0.00 | 0.03 | 0.03 | 92 | 1013.2 |
| 20260906115501 | 75 | 14 | 1.7 | 3.5 | 0.00 | 0.03 | 0.03 | 92 | 1013.1 |
| 20260906115003 | 75 | 20 | 1.7 | 2.6 | 0.00 | 0.03 | 0.03 | 92 | 1013.3 |
| 20260906114502 | 74 | 360 | 1.7 | 2.6 | 0.00 | 0.03 | 0.03 | 92 | 1013.4 |
| 20260906114001 | 74 | 360 | 0.9 | 2.6 | 0.00 | 0.03 | 0.03 | 91 | 1013.5 |
| 20260906113501 | 74 | 276 | 0.0 | 1.7 | 0.00 | 0.03 | 0.03 | 91 | 1013.6 |
| 20260906113001 | 74 | 276 | 0.0 | 1.7 | 0.00 | 0.03 | 0.03 | 91 | 1013.5 |
| 20260906112501 | 74 | 276 | 0.9 | 1.7 | 0.01 | 0.03 | 0.03 | 91 | 1013.5 |
| 20260906112001 | 74 | 165 | 0.0 | 0.9 | 0.01 | 0.03 | 0.03 | 91 | 1013.5 |
| 20260906111502 | 74 | 165 | 0.0 | 0.9 | 0.01 | 0.03 | 0.03 | 91 | 1013.5 |
| 20260906111001 | 74 | 165 | 0.0 | 0.9 | 0.01 | 0.03 | 0.03 | 91 | 1013.4 |
| 20260906110502 | 75 | 165 | 0.0 | 0.9 | 0.02 | 0.03 | 0.03 | 91 | 1013.5 |
| 20260906110003 | 75 | 165 | 0.0 | 0.9 | 0.02 | 0.03 | 0.03 | 91 | 1013.6 |
| 20260906104501 | 75 | 165 | 0.9 | 2.6 | 0.03 | 0.03 | 0.03 | 90 | 1013.6 |
| 20260906104001 | 75 | 209 | 1.7 | 2.6 | 0.03 | 0.03 | 0.03 | 90 | 1013.7 |
| 20260906103502 | 75 | 202 | 1.7 | 4.3 | 0.03 | 0.03 | 0.03 | 89 | 1013.9 |
| 20260906103002 | 75 | 217 | 1.7 | 4.3 | 0.03 | 0.03 | 0.03 | 89 | 1013.9 |
| 20260906102501 | 75 | 229 | 1.7 | 3.5 | 0.02 | 0.02 | 0.02 | 89 | 1013.9 |
| 20260906101003 | 76 | 212 | 2.6 | 6.1 | 0.02 | 0.02 | 0.02 | 88 | 1014.0 |
| 20260906100503 | 76 | 239 | 2.6 | 6.1 | 0.01 | 0.01 | 0.01 | 88 | 1014.0 |
| 20260906100004 | 77 | 250 | 2.6 | 6.1 | 0.01 | 0.01 | 0.01 | 88 | 1014.0 |
| 20260906095502 | 77 | 178 | 3.5 | 6.1 | 0.00 | 0.00 | 0.00 | 88 | 1014.1 |
| 20260906095002 | 77 | 213 | 3.5 | 6.1 | 0.00 | 0.00 | 0.00 | 87 | 1014.1 |
| 20260906094501 | 78 | 194 | 2.6 | 7.0 | 0.00 | 0.00 | 0.00 | 86 | 1013.8 |
| 20260906094001 | 78 | 205 | 1.7 | 4.3 | 0.00 | 0.00 | 0.00 | 85 | 1013.5 |
| 20260906093501 | 78 | 165 | 0.9 | 4.3 | 0.00 | 0.00 | 0.00 | 85 | 1013.5 |
| 20260906093001 | 78 | 198 | 0.9 | 1.7 | 0.00 | 0.00 | 0.00 | 85 | 1013.2 |
| 20260906092501 | 78 | 198 | 1.7 | 3.5 | 0.00 | 0.00 | 0.00 | 84 | 1013.0 |
| 20260906092001 | 78 | 198 | 1.7 | 3.5 | 0.00 | 0.00 | 0.00 | 84 | 1013.0 |
| 20260906091003 | 78 | 203 | 1.7 | 3.5 | 0.00 | 0.00 | 0.00 | 84 | 1013.1 |
| 20260906090501 | 78 | 246 | 1.7 | 3.5 | 0.00 | 0.00 | 0.00 | 84 | 1013.1 |
| 20260906085002 | 78 | 212 | 1.7 | 6.1 | 0.00 | 0.00 | 0.00 | 85 | 1012.8 |
| 20260906084502 | 78 | 130 | 1.7 | 4.3 | 0.00 | 0.00 | 0.00 | 85 | 1013.1 |
| 20260906084001 | 79 | 173 | 1.7 | 6.1 | 0.00 | 0.00 | 0.00 | 85 | 1013.2 |
| 20260906083502 | 79 | 123 | 1.7 | 6.1 | 0.00 | 0.00 | 0.00 | 87 | 1013.2 |
| 20260906083003 | 79 | 227 | 1.7 | 7.0 | 0.00 | 0.00 | 0.00 | 87 | 1013.3 |
| 20260906082502 | 79 | 266 | 1.7 | 7.0 | 0.00 | 0.00 | 0.00 | 88 | 1013.3 |
| 20260906081002 | 79 | 128 | 1.7 | 4.3 | 0.00 | 0.00 | 0.00 | 88 | 1013.3 |
| 20260906080501 | 79 | 232 | 1.7 | 4.3 | 0.00 | 0.00 | 0.00 | 88 | 1013.6 |
| 20260906080004 | 79 | 215 | 0.9 | 1.7 | 0.00 | 0.00 | 0.00 | 88 | 1013.6 |
| 20260906075503 | 79 | 258 | 0.9 | 1.7 | 0.00 | 0.00 | 0.00 | 88 | 1013.6 |
| 20260906075001 | 78 | 215 | 0.9 | 2.6 | 0.00 | 0.00 | 0.00 | 88 | 1013.6 |
| 20260906074502 | 78 | 215 | 0.9 | 2.6 | 0.00 | 0.00 | 0.00 | 88 | 1013.7 |
| 20260906073501 | 78 | 32 | 0.9 | 1.7 | 0.00 | 0.00 | 0.00 | 88 | 1013.6 |
| 20260906073002 | 78 | 32 | 0.9 | 2.6 | 0.00 | 0.00 | 0.00 | 88 | 1013.2 |
| 20260906072501 | 78 | 32 | 0.9 | 2.6 | 0.00 | 0.00 | 0.00 | 88 | 1013.1 |
| 20260906072002 | 78 | 32 | 0.9 | 2.6 | 0.00 | 0.00 | 0.00 | 88 | 1013.1 |
| 20260906071501 | 78 | 32 | 0.9 | 2.6 | 0.00 | 0.00 | 0.00 | 88 | 1013.2 |
| 20260906071001 | 78 | 32 | 0.9 | 2.6 | 0.00 | 0.00 | 0.00 | 88 | 1013.4 |
| 20260906070502 | 78 | 32 | 0.9 | 2.6 | 0.00 | 0.00 | 0.00 | 88 | 1013.3 |
| 20260906065500 | 78 | 45 | 1.7 | 3.5 | 0.00 | 0.00 | 0.00 | 87 | 1013.3 |
| 20260906065000 | 78 | 47 | 1.7 | 3.5 | 0.00 | 0.00 | 0.00 | 87 | 1013.2 |
| 20260906064501 | 78 | 61 | 0.9 | 2.6 | 0.00 | 0.00 | 0.00 | 87 | 1013.6 |
| 20260906064000 | 78 | 61 | 1.7 | 3.5 | 0.00 | 0.00 | 0.00 | 87 | 1013.6 |
| 20260906063500 | 78 | 66 | 1.7 | 3.5 | 0.00 | 0.00 | 0.00 | 87 | 1013.5 |
| 20260906063001 | 78 | 9 | 1.7 | 3.5 | 0.00 | 0.00 | 0.00 | 87 | 1013.5 |
| 20260906062459 | 78 | 342 | 0.9 | 3.5 | 0.00 | 0.00 | 0.00 | 87 | 1013.6 |
| 20260906062000 | 78 | 47 | 0.9 | 2.6 | 0.00 | 0.00 | 0.00 | 87 | 1013.8 |
| 20260906061500 | 78 | 47 | 0.9 | 1.7 | 0.00 | 0.00 | 0.00 | 87 | 1013.8 |
| 20260906060500 | 78 | 47 | 1.7 | 2.6 | 0.00 | 0.00 | 0.00 | 87 | 1013.8 |
| 20260906060005 | 78 | 59 | 0.9 | 2.6 | 0.00 | 0.00 | 0.00 | 86 | 1013.9 |
| 20260906055503 | 78 | 59 | 0.9 | 1.7 | 0.00 | 0.00 | 0.00 | 86 | 1014.0 |
| 20260906055004 | 78 | 59 | 0.9 | 1.7 | 0.00 | 0.00 | 0.00 | 86 | 1013.9 |
| 20260906054503 | 78 | 59 | 0.9 | 2.6 | 0.00 | 0.00 | 0.00 | 86 | 1014.0 |
| 20260906054006 | 78 | 59 | 0.9 | 2.6 | 0.00 | 0.00 | 0.00 | 86 | 1013.9 |
| 20260906053503 | 78 | 59 | 1.7 | 2.6 | 0.00 | 0.00 | 0.00 | 86 | 1013.9 |
| 20260906053003 | 78 | 59 | 0.9 | 2.6 | 0.00 | 0.00 | 0.00 | 86 | 1014.0 |
| 20260906052503 | 78 | 35 | 0.0 | 2.6 | 0.00 | 0.00 | 0.00 | 85 | 1014.0 |
| 20260906051503 | 78 | 35 | 0.9 | 1.7 | 0.00 | 0.00 | 0.00 | 85 | 1014.1 |
| 20260906051004 | 78 | 35 | 0.9 | 1.7 | 0.00 | 0.00 | 0.00 | 85 | 1014.1 |
| 20260906050503 | 79 | 35 | 0.9 | 1.7 | 0.00 | 0.00 | 0.00 | 85 | 1014.1 |
| 20260906050007 | 79 | 35 | 0.0 | 0.9 | 0.00 | 0.00 | 0.00 | 85 | 1014.1 |
| 20260906045502 | 79 | 35 | 0.9 | 1.7 | 0.00 | 0.00 | 0.00 | 85 | 1014.2 |
| 20260906045002 | 79 | 35 | 0.9 | 1.7 | 0.00 | 0.00 | 0.00 | 85 | 1014.1 |
| 20260906044502 | 79 | 35 | 0.9 | 1.7 | 0.00 | 0.00 | 0.00 | 85 | 1014.2 |
| 20260906043502 | 79 | 35 | 0.9 | 1.7 | 0.00 | 0.00 | 0.00 | 85 | 1014.2 |
| 20260906043002 | 79 | 35 | 0.9 | 1.7 | 0.00 | 0.00 | 0.00 | 84 | 1014.2 |
| 20260906042503 | 79 | 35 | 0.9 | 1.7 | 0.00 | 0.00 | 0.00 | 84 | 1014.3 |
| 20260906042003 | 79 | 35 | 0.9 | 1.7 | 0.00 | 0.00 | 0.00 | 84 | 1014.3 |
| 20260906041502 | 79 | 35 | 0.9 | 1.7 | 0.00 | 0.00 | 0.00 | 84 | 1014.2 |
| 20260906041003 | 79 | 35 | 0.9 | 1.7 | 0.00 | 0.00 | 0.00 | 84 | 1014.2 |
| 20260906040502 | 79 | 35 | 0.9 | 1.7 | 0.00 | 0.00 | 0.00 | 83 | 1014.1 |
| 20260906040004 | 79 | 35 | 0.9 | 2.6 | 0.00 | 0.00 | 0.00 | 83 | 1014.1 |
| 20260906035503 | 79 | 35 | 0.9 | 2.6 | 0.00 | 0.00 | 0.00 | 83 | 1014.0 |
| 20260906035003 | 80 | 61 | 1.7 | 2.6 | 0.00 | 0.00 | 0.00 | 83 | 1014.0 |
| 20260906034503 | 80 | 61 | 1.7 | 2.6 | 0.00 | 0.00 | 0.00 | 83 | 1014.0 |
| 20260906034003 | 80 | 61 | 1.7 | 2.6 | 0.00 | 0.00 | 0.00 | 83 | 1014.0 |
| 20260906033503 | 80 | 61 | 1.7 | 2.6 | 0.00 | 0.00 | 0.00 | 83 | 1014.1 |
| 20260906032502 | 80 | 61 | 1.7 | 3.5 | 0.00 | 0.00 | 0.00 | 83 | 1014.1 |
| 20260906032003 | 80 | 24 | 1.7 | 3.5 | 0.00 | 0.00 | 0.00 | 82 | 1014.0 |
| 20260906031502 | 80 | 39 | 1.7 | 2.6 | 0.00 | 0.00 | 0.00 | 82 | 1014.0 |
| 20260906031002 | 80 | 39 | 1.7 | 2.6 | 0.00 | 0.00 | 0.00 | 82 | 1013.9 |
| 20260906030502 | 80 | 14 | 0.9 | 2.6 | 0.00 | 0.00 | 0.00 | 82 | 1013.8 |
| 20260906030005 | 80 | 5 | 0.9 | 2.6 | 0.00 | 0.00 | 0.00 | 82 | 1013.9 |
| 20260906025005 | 81 | 5 | 0.9 | 2.6 | 0.00 | 0.00 | 0.00 | 81 | 1013.8 |
| 20260906024503 | 81 | 5 | 0.9 | 2.6 | 0.00 | 0.00 | 0.00 | 81 | 1013.9 |
| 20260906024003 | 81 | 58 | 0.9 | 2.6 | 0.00 | 0.00 | 0.00 | 81 | 1013.8 |
| 20260906023503 | 81 | 58 | 1.7 | 2.6 | 0.00 | 0.00 | 0.00 | 80 | 1013.6 |
| 20260906023003 | 81 | 36 | 1.7 | 2.6 | 0.00 | 0.00 | 0.00 | 80 | 1013.8 |
| 20260906022504 | 81 | 36 | 0.9 | 2.6 | 0.00 | 0.00 | 0.00 | 80 | 1013.8 |
| 20260906022005 | 81 | 336 | 1.7 | 2.6 | 0.00 | 0.00 | 0.00 | 80 | 1013.8 |
| 20260906021505 | 81 | 38 | 1.7 | 2.6 | 0.00 | 0.00 | 0.00 | 80 | 1013.7 |
| 20260906021003 | 81 | 38 | 1.7 | 2.6 | 0.00 | 0.00 | 0.00 | 80 | 1013.6 |
| 20260906020503 | 82 | 5 | 1.7 | 2.6 | 0.00 | 0.00 | 0.00 | 79 | 1013.7 |
| 20260906020004 | 82 | 11 | 1.7 | 2.6 | 0.00 | 0.00 | 0.00 | 79 | 1013.7 |
| 20260906015503 | 82 | 11 | 1.7 | 3.5 | 0.00 | 0.00 | 0.00 | 79 | 1013.7 |
| 20260906015005 | 82 | 355 | 1.7 | 3.5 | 0.00 | 0.00 | 0.00 | 79 | 1013.7 |
| 20260906014509 | 82 | 17 | 0.9 | 2.6 | 0.00 | 0.00 | 0.00 | 78 | 1013.5 |
| 20260906014003 | 82 | 44 | 1.7 | 2.6 | 0.00 | 0.00 | 0.00 | 78 | 1013.3 |
| 20260906013502 | 83 | 44 | 1.7 | 3.5 | 0.00 | 0.00 | 0.00 | 78 | 1013.1 |
| 20260906011503 | 84 | 18 | 1.7 | 3.5 | 0.00 | 0.00 | 0.00 | 77 | 1012.8 |
| 20260906011002 | 84 | 26 | 1.7 | 3.5 | 0.00 | 0.00 | 0.00 | 77 | 1012.8 |
| 20260906010503 | 84 | 33 | 1.7 | 3.5 | 0.00 | 0.00 | 0.00 | 76 | 1012.8 |
| 20260906010004 | 84 | 33 | 1.7 | 4.3 | 0.00 | 0.00 | 0.00 | 76 | 1012.6 |
| 20260906005501 | 84 | 30 | 2.6 | 4.3 | 0.00 | 0.00 | 0.00 | 76 | 1012.5 |
| 20260906005002 | 85 | 66 | 2.6 | 4.3 | 0.00 | 0.00 | 0.00 | 76 | 1012.6 |
| 20260906004502 | 85 | 43 | 2.6 | 4.3 | 0.00 | 0.00 | 0.00 | 76 | 1012.5 |
| 20260906004003 | 85 | 45 | 2.6 | 5.2 | 0.00 | 0.00 | 0.00 | 76 | 1012.5 |
| 20260906003003 | 86 | 53 | 2.6 | 5.2 | 0.00 | 0.00 | 0.00 | 75 | 1012.5 |
| 20260906002502 | 86 | 51 | 2.6 | 5.2 | 0.00 | 0.00 | 0.00 | 75 | 1012.5 |
| 20260906002001 | 87 | 57 | 3.5 | 7.0 | 0.00 | 0.00 | 0.00 | 75 | 1012.5 |
| 20260906001502 | 87 | 74 | 4.3 | 8.7 | 0.00 | 0.00 | 0.00 | 74 | 1012.4 |
| 20260906001002 | 87 | 89 | 3.5 | 7.8 | 0.00 | 0.00 | 0.00 | 74 | 1012.4 |
| 20260906000502 | 87 | 78 | 2.6 | 7.0 | 0.00 | 0.00 | 0.00 | 73 | 1012.4 |
| 20260906000005 | 88 | 49 | 2.6 | 5.2 | 0.00 | 0.00 | 0.00 | 73 | 1012.5 |
| 20260905235502 | 88 | 55 | 3.5 | 7.8 | 0.00 | 0.00 | 0.00 | 72 | 1012.5 |
| 20260905235004 | 89 | 36 | 3.5 | 7.8 | 0.00 | 0.00 | 0.00 | 72 | 1012.5 |
| 20260905234506 | 89 | 84 | 3.5 | 7.8 | 0.00 | 0.00 | 0.00 | 71 | 1012.6 |
| 20260905234003 | 89 | 13 | 3.5 | 6.1 | 0.00 | 0.00 | 0.00 | 70 | 1012.7 |
| 20260905233506 | 90 | 88 | 4.3 | 7.8 | 0.00 | 0.00 | 0.00 | 69 | 1012.6 |
| 20260905233002 | 90 | 38 | 4.3 | 9.6 | 0.00 | 0.00 | 0.00 | 68 | 1012.6 |
| 20260905232503 | 91 | 93 | 4.3 | 9.6 | 0.00 | 0.00 | 0.00 | 68 | 1012.5 |
| 20260905232006 | 91 | 18 | 4.3 | 8.7 | 0.00 | 0.00 | 0.00 | 67 | 1012.6 |
| 20260905231503 | 92 | 35 | 3.5 | 8.7 | 0.00 | 0.00 | 0.00 | 66 | 1012.6 |
| 20260905231002 | 92 | 88 | 4.3 | 7.8 | 0.00 | 0.00 | 0.00 | 65 | 1012.5 |
| 20260905230502 | 93 | 28 | 3.5 | 7.8 | 0.00 | 0.00 | 0.00 | 64 | 1012.3 |
| 20260905230004 | 93 | 65 | 2.6 | 7.0 | 0.00 | 0.00 | 0.00 | 64 | 1012.3 |
| 20260905225004 | 94 | 55 | 3.5 | 7.0 | 0.00 | 0.00 | 0.00 | 62 | 1012.3 |
| 20260905224004 | 95 | 75 | 3.5 | 10.4 | 0.00 | 0.00 | 0.00 | 60 | 1012.2 |
| 20260905223506 | 95 | 38 | 3.5 | 10.4 | 0.00 | 0.00 | 0.00 | 59 | 1012.2 |
| 20260905222512 | 96 | 331 | 3.5 | 7.8 | 0.00 | 0.00 | 0.00 | 57 | 1012.1 |
| 20260905221502 | 97 | 5 | 2.6 | 6.1 | 0.00 | 0.00 | 0.00 | 56 | 1012.0 |
| 20260905221002 | 97 | 28 | 1.7 | 5.2 | 0.00 | 0.00 | 0.00 | 54 | 1012.1 |
| 20260905220502 | 96 | 107 | 0.9 | 2.6 | 0.00 | 0.00 | 0.00 | 47 | 1012.1 |
| 20260905220005 | 96 | 320 | 0.9 | 2.6 | 0.00 | 0.00 | 0.00 | 47 | 1012.0 |
| 20260905215502 | 96 | 331 | 1.7 | 3.5 | 0.00 | 0.00 | 0.00 | 50 | 1011.9 |
| 20260905215006 | 97 | 261 | 1.7 | 3.5 | 0.00 | 0.00 | 0.00 | 48 | 1012.0 |
| 20260905214502 | 97 | 228 | 0.9 | 2.6 | 0.00 | 0.00 | 0.00 | 47 | 1012.0 |
| 20260905214002 | 97 | 93 | 0.9 | 2.6 | 0.00 | 0.00 | 0.00 | 47 | 1011.9 |
| 20260905213502 | 97 | 311 | 1.7 | 3.5 | 0.00 | 0.00 | 0.00 | 46 | 1012.0 |
| 20260905213002 | 98 | 344 | 1.7 | 4.3 | 0.00 | 0.00 | 0.00 | 46 | 1012.1 |
| 20260905212002 | 98 | 178 | 1.7 | 6.1 | 0.00 | 0.00 | 0.00 | 44 | 1012.1 |
| 20260905210004 | 98 | 10 | 1.7 | 3.5 | 0.00 | 0.00 | 0.00 | 45 | 1012.2 |
| 20260905205501 | 98 | 290 | 1.7 | 7.0 | 0.00 | 0.00 | 0.00 | 44 | 1012.3 |
| 20260905205003 | 99 | 259 | 2.6 | 7.0 | 0.00 | 0.00 | 0.00 | 44 | 1012.3 |
| 20260905204502 | 98 | 168 | 2.6 | 7.0 | 0.00 | 0.00 | 0.00 | 46 | 1012.3 |
| 20260905204003 | 98 | 154 | 1.7 | 5.2 | 0.00 | 0.00 | 0.00 | 46 | 1012.3 |
| 20260905203502 | 98 | 218 | 2.6 | 5.2 | 0.00 | 0.00 | 0.00 | 44 | 1012.5 |
| 20260905203004 | 99 | 159 | 1.7 | 5.2 | 0.00 | 0.00 | 0.00 | 45 | 1012.5 |
| 20260905202504 | 99 | 355 | 1.7 | 5.2 | 0.00 | 0.00 | 0.00 | 46 | 1012.5 |
| 20260905201003 | 100 | 119 | 2.6 | 6.1 | 0.00 | 0.00 | 0.00 | 45 | 1012.5 |
| 20260905200503 | 99 | 236 | 2.6 | 6.1 | 0.00 | 0.00 | 0.00 | 46 | 1012.5 |
| 20260905200004 | 99 | 118 | 1.7 | 7.8 | 0.00 | 0.00 | 0.00 | 46 | 1012.4 |
| 20260905195502 | 99 | 271 | 1.7 | 7.8 | 0.00 | 0.00 | 0.00 | 43 | 1012.6 |
| 20260905195002 | 100 | 340 | 1.7 | 5.2 | 0.00 | 0.00 | 0.00 | 44 | 1012.5 |
| 20260905194003 | 100 | 216 | 2.6 | 6.1 | 0.00 | 0.00 | 0.00 | 45 | 1012.7 |
| 20260905193502 | 100 | 46 | 2.6 | 7.8 | 0.00 | 0.00 | 0.00 | 47 | 1012.7 |
| 20260905193001 | 99 | 51 | 2.6 | 7.8 | 0.00 | 0.00 | 0.00 | 46 | 1012.8 |
| 20260905192503 | 99 | 44 | 2.6 | 7.0 | 0.00 | 0.00 | 0.00 | 49 | 1013.0 |
| 20260905192002 | 99 | 65 | 1.7 | 7.0 | 0.00 | 0.00 | 0.00 | 48 | 1013.1 |
| 20260905191502 | 98 | 104 | 1.7 | 7.0 | 0.00 | 0.00 | 0.00 | 48 | 1013.2 |
| 20260905191001 | 99 | 253 | 1.7 | 7.0 | 0.00 | 0.00 | 0.00 | 46 | 1013.3 |
| 20260905190501 | 99 | 261 | 1.7 | 5.2 | 0.00 | 0.00 | 0.00 | 49 | 1013.4 |
| 20260905190003 | 99 | 74 | 1.7 | 5.2 | 0.00 | 0.00 | 0.00 | 47 | 1013.4 |
| 20260905185502 | 99 | 10 | 1.7 | 5.2 | 0.00 | 0.00 | 0.00 | 49 | 1013.5 |
| 20260905184503 | 98 | 195 | 2.6 | 6.1 | 0.00 | 0.00 | 0.00 | 51 | 1013.7 |
| 20260905184004 | 96 | 171 | 3.5 | 6.1 | 0.00 | 0.00 | 0.00 | 52 | 1013.8 |
| 20260905183502 | 97 | 206 | 3.5 | 7.8 | 0.00 | 0.00 | 0.00 | 53 | 1013.9 |
| 20260905183001 | 97 | 184 | 2.6 | 7.8 | 0.00 | 0.00 | 0.00 | 52 | 1013.9 |
| 20260905182503 | 96 | 360 | 2.6 | 7.0 | 0.00 | 0.00 | 0.00 | 53 | 1014.0 |
| 20260905182002 | 95 | 227 | 1.7 | 5.2 | 0.00 | 0.00 | 0.00 | 56 | 1014.2 |
| 20260905181002 | 96 | 213 | 2.6 | 5.2 | 0.00 | 0.00 | 0.00 | 53 | 1014.3 |
| 20260905180502 | 98 | 236 | 1.7 | 5.2 | 0.00 | 0.00 | 0.00 | 51 | 1014.3 |
| 20260905180005 | 97 | 101 | 1.7 | 3.5 | 0.00 | 0.00 | 0.00 | 53 | 1014.5 |
| 20260905175502 | 95 | 134 | 1.7 | 3.5 | 0.00 | 0.00 | 0.00 | 55 | 1014.4 |
| 20260905175002 | 95 | 355 | 1.7 | 3.5 | 0.00 | 0.00 | 0.00 | 56 | 1014.5 |
| 20260905174502 | 96 | 288 | 2.6 | 7.0 | 0.00 | 0.00 | 0.00 | 55 | 1014.6 |
| 20260905174002 | 95 | 182 | 2.6 | 7.0 | 0.00 | 0.00 | 0.00 | 54 | 1014.7 |
| 20260905172002 | 96 | 246 | 1.7 | 5.2 | 0.00 | 0.00 | 0.00 | 55 | 1014.9 |
| 20260905171502 | 96 | 98 | 1.7 | 5.2 | 0.00 | 0.00 | 0.00 | 56 | 1014.9 |
| 20260905171002 | 95 | 108 | 1.7 | 7.0 | 0.00 | 0.00 | 0.00 | 57 | 1015.2 |
| 20260905170501 | 94 | 162 | 2.6 | 7.0 | 0.00 | 0.00 | 0.00 | 56 | 1015.2 |
| 20260905170005 | 94 | 219 | 2.6 | 5.2 | 0.00 | 0.00 | 0.00 | 56 | 1015.2 |
| 20260905165502 | 94 | 191 | 1.7 | 5.2 | 0.00 | 0.00 | 0.00 | 56 | 1015.4 |
| 20260905165001 | 95 | 155 | 2.6 | 9.6 | 0.00 | 0.00 | 0.00 | 54 | 1015.4 |
| 20260905164502 | 95 | 210 | 2.6 | 9.6 | 0.00 | 0.00 | 0.00 | 54 | 1015.5 |
| 20260905164002 | 95 | 190 | 1.7 | 6.1 | 0.00 | 0.00 | 0.00 | 57 | 1015.5 |
| 20260905163502 | 95 | 227 | 1.7 | 6.1 | 0.00 | 0.00 | 0.00 | 57 | 1015.6 |
| 20260905163003 | 94 | 319 | 1.7 | 5.2 | 0.00 | 0.00 | 0.00 | 60 | 1015.5 |
| 20260905162502 | 94 | 313 | 1.7 | 4.3 | 0.00 | 0.00 | 0.00 | 59 | 1015.6 |
| 20260905162002 | 93 | 107 | 1.7 | 4.3 | 0.00 | 0.00 | 0.00 | 60 | 1015.7 |
| 20260905161502 | 93 | 166 | 1.7 | 4.3 | 0.00 | 0.00 | 0.00 | 62 | 1015.7 |
| 20260905160503 | 93 | 230 | 2.6 | 5.2 | 0.00 | 0.00 | 0.00 | 62 | 1015.8 |
| 20260905160003 | 93 | 292 | 1.7 | 6.1 | 0.00 | 0.00 | 0.00 | 62 | 1015.7 |
| 20260905155502 | 93 | 172 | 1.7 | 3.5 | 0.00 | 0.00 | 0.00 | 63 | 1015.7 |
| 20260905155003 | 93 | 199 | 1.7 | 5.2 | 0.00 | 0.00 | 0.00 | 62 | 1015.7 |
| 20260905154502 | 93 | 238 | 1.7 | 5.2 | 0.00 | 0.00 | 0.00 | 65 | 1015.6 |
| 20260905154001 | 91 | 222 | 2.6 | 4.3 | 0.00 | 0.00 | 0.00 | 67 | 1015.6 |
| 20260905153002 | 90 | 275 | 2.6 | 6.1 | 0.00 | 0.00 | 0.00 | 67 | 1015.6 |
| 20260905152503 | 90 | 254 | 2.6 | 5.2 | 0.00 | 0.00 | 0.00 | 66 | 1015.6 |
| 20260905152002 | 90 | 163 | 2.6 | 5.2 | 0.00 | 0.00 | 0.00 | 68 | 1015.6 |
| 20260905151503 | 89 | 212 | 2.6 | 6.1 | 0.00 | 0.00 | 0.00 | 68 | 1015.6 |
| 20260905151002 | 89 | 244 | 1.7 | 6.1 | 0.00 | 0.00 | 0.00 | 68 | 1015.7 |
| 20260905150501 | 89 | 170 | 1.7 | 4.3 | 0.00 | 0.00 | 0.00 | 69 | 1015.6 |
| 20260905150003 | 88 | 264 | 1.7 | 5.2 | 0.00 | 0.00 | 0.00 | 71 | 1015.6 |
| 20260905145500 | 88 | 238 | 2.6 | 5.2 | 0.00 | 0.00 | 0.00 | 70 | 1015.7 |
| 20260905145000 | 88 | 196 | 2.6 | 5.2 | 0.00 | 0.00 | 0.00 | 71 | 1015.7 |
| 20260905144501 | 87 | 216 | 1.7 | 5.2 | 0.00 | 0.00 | 0.00 | 71 | 1015.8 |
| 20260905144000 | 87 | 252 | 1.7 | 5.2 | 0.00 | 0.00 | 0.00 | 72 | 1015.7 |
| 20260905143002 | 87 | 229 | 1.7 | 4.3 | 0.00 | 0.00 | 0.00 | 73 | 1015.8 |
| 20260905142500 | 86 | 281 | 1.7 | 3.5 | 0.00 | 0.00 | 0.00 | 74 | 1015.8 |
| 20260905142001 | 86 | 231 | 1.7 | 3.5 | 0.00 | 0.00 | 0.00 | 75 | 1015.8 |
| 20260905141501 | 85 | 221 | 1.7 | 3.5 | 0.00 | 0.00 | 0.00 | 76 | 1015.8 |
| 20260905141001 | 85 | 142 | 1.7 | 3.5 | 0.00 | 0.00 | 0.00 | 75 | 1015.8 |
| 20260905140002 | 84 | 211 | 2.6 | 6.1 | 0.00 | 0.00 | 0.00 | 78 | 1015.8 |
| 20260905135501 | 84 | 246 | 2.6 | 6.1 | 0.00 | 0.00 | 0.00 | 77 | 1015.9 |
| 20260905134501 | 83 | 159 | 1.7 | 5.2 | 0.00 | 0.00 | 0.00 | 79 | 1015.9 |
| 20260905133001 | 82 | 237 | 0.9 | 2.6 | 0.00 | 0.00 | 0.00 | 82 | 1015.9 |
| 20260905132501 | 81 | 226 | 0.0 | 2.6 | 0.00 | 0.00 | 0.00 | 83 | 1015.9 |
| 20260905132001 | 80 | 160 | 0.0 | 1.7 | 0.00 | 0.00 | 0.00 | 85 | 1015.8 |
| 20260905131001 | 77 | 160 | 0.0 | 1.7 | 0.00 | 0.00 | 0.00 | 92 | 1016.0 |
| 20260905130003 | 75 | 100 | 0.9 | 1.7 | 0.00 | 0.00 | 0.00 | 92 | 1016.0 |
| 20260905125500 | 75 | 27 | 0.0 | 1.7 | 0.00 | 0.00 | 0.00 | 92 | 1016.0 |
| 20260905125000 | 75 | 27 | 0.0 | 0.0 | 0.00 | 0.00 | 0.00 | 92 | 1016.0 |
| 20260905124500 | 75 | 27 | 0.0 | 0.0 | 0.00 | 0.00 | 0.00 | 92 | 1015.9 |
| 20260905124000 | 74 | 27 | 0.0 | 0.0 | 0.00 | 0.00 | 0.00 | 92 | 1016.0 |
| 20260905123501 | 74 | 27 | 0.0 | 0.0 | 0.00 | 0.00 | 0.00 | 91 | 1016.0 |